CW2750 Weather Reports


Display with metric or nautical units.
time (UTC)temp
F
wind
direction
speed
MPH
gust
MPH
rain 1hr
in
rain 24hr
in
rain mn
in
humidity
%
barometer
mb
20260507025410 66 346 0.0 5.0 0.00 0.00 0.00 60 1017.2
20260507024640 66 313 0.0 5.0 0.00 0.00 0.00 60 1017.2
20260507024138 66 339 0.0 1.0 0.00 0.00 0.00 60 1017.2
20260507023653 66 311 0.0 4.0 0.00 0.00 0.00 59 1017.3
20260507023138 67 304 0.0 5.0 0.00 0.00 0.00 59 1017.3
20260507022635 67 304 1.0 6.0 0.00 0.00 0.00 58 1017.3
20260507022136 67 315 1.0 6.0 0.00 0.00 0.00 58 1017.0
20260507021634 68 309 1.0 8.0 0.00 0.00 0.00 58 1017.0
20260507021406 68 299 0.0 8.0 0.00 0.00 0.00 57 1017.0
20260507020636 68 14 0.0 7.0 0.00 0.00 0.00 56 1017.0
20260507020136 69 301 1.0 7.0 0.00 0.00 0.00 55 1017.0
20260507015636 69 295 0.0 6.0 0.00 0.00 0.00 54 1017.0
20260507015136 70 287 0.0 4.0 0.00 0.00 0.00 54 1017.0
20260507014907 70 288 0.0 4.0 0.00 0.00 0.00 53 1017.0
20260507014134 70 296 0.0 3.0 0.00 0.00 0.00 53 1017.0
20260507013635 70 292 1.0 8.0 0.00 0.00 0.00 52 1016.9
20260507013138 70 296 1.0 8.0 0.00 0.00 0.00 51 1016.9
20260507012634 70 294 1.0 10.0 0.00 0.00 0.00 51 1016.9
20260507012406 71 285 1.0 10.0 0.00 0.00 0.00 51 1016.9
20260507011633 71 342 1.0 6.0 0.00 0.00 0.00 50 1016.9
20260507011133 72 284 1.0 7.0 0.00 0.00 0.00 50 1016.9
20260507010645 72 305 1.0 8.0 0.00 0.00 0.00 49 1016.8
20260507010131 72 288 1.0 10.0 0.00 0.00 0.00 47 1016.8
20260507005634 72 0 1.0 10.0 0.00 0.00 0.00 48 1016.8
20260507005404 73 14 1.0 11.0 0.00 0.00 0.00 47 1016.8
20260507004628 73 312 1.0 11.0 0.00 0.00 0.00 47 1016.8
20260507003124 74 306 2.0 8.0 0.00 0.00 0.00 47 1016.6
20260507002627 75 295 2.0 8.0 0.00 0.00 0.00 46 1016.7
20260507002128 75 308 1.0 8.0 0.00 0.00 0.00 44 1016.7
20260507001628 75 318 1.0 8.0 0.00 0.00 0.00 44 1016.7
20260507001128 76 320 1.0 6.0 0.00 0.00 0.00 45 1016.7
20260507000626 75 337 1.0 6.0 0.00 0.00 0.00 44 1016.5
20260506235625 76 309 1.0 6.0 0.00 0.00 0.00 43 1016.5
20260506235125 77 343 1.0 7.0 0.00 0.00 0.00 42 1016.6
20260506234623 77 315 1.0 7.0 0.00 0.00 0.00 43 1016.6
20260506234123 77 318 0.0 7.0 0.00 0.00 0.00 43 1016.6
20260506233621 77 292 1.0 7.0 0.00 0.00 0.00 42 1016.7
20260506233122 76 333 1.0 7.0 0.00 0.00 0.00 43 1016.7
20260506232621 76 326 2.0 10.0 0.00 0.00 0.00 43 1016.7
20260506232124 76 312 2.0 10.0 0.00 0.00 0.00 43 1016.8
20260506231623 77 17 1.0 7.0 0.00 0.00 0.00 42 1016.8
20260506231121 77 302 1.0 7.0 0.00 0.00 0.00 42 1016.8
20260506230623 77 356 0.0 8.0 0.00 0.00 0.00 41 1016.9
20260506230352 77 44 0.0 8.0 0.00 0.00 0.00 42 1016.9
20260506225855 78 35 1.0 7.0 0.00 0.00 0.00 42 1016.9
20260506225121 78 328 1.0 8.0 0.00 0.00 0.00 42 1016.9
20260506224620 78 312 1.0 8.0 0.00 0.00 0.00 41 1016.9
20260506224353 77 35 1.0 7.0 0.00 0.00 0.00 40 1016.9
20260506223619 77 336 0.0 4.0 0.00 0.00 0.00 41 1017.1
20260506223119 77 350 1.0 7.0 0.00 0.00 0.00 42 1017.1
20260506222619 76 313 1.0 7.0 0.00 0.00 0.00 43 1017.1
20260506222123 76 308 1.0 8.0 0.00 0.00 0.00 42 1017.3
20260506221620 76 305 1.0 8.0 0.00 0.00 0.00 42 1017.3
20260506221348 77 329 0.0 1.0 0.00 0.00 0.00 42 1017.3
20260506220621 76 40 0.0 8.0 0.00 0.00 0.00 43 1017.5
20260506220119 77 186 1.0 8.0 0.00 0.00 0.00 42 1017.5
20260506215852 76 305 0.0 5.0 0.00 0.00 0.00 41 1017.5
20260506215115 76 325 0.0 6.0 0.00 0.00 0.00 43 1017.7
20260506214846 75 320 0.0 6.0 0.00 0.00 0.00 43 1017.7
20260506214112 76 294 0.0 6.0 0.00 0.00 0.00 43 1017.7
20260506213611 76 359 0.0 6.0 0.00 0.00 0.00 45 1018.0
20260506213112 75 305 0.0 7.0 0.00 0.00 0.00 43 1018.0
20260506212613 75 308 0.0 7.0 0.00 0.00 0.00 45 1018.0
20260506212110 75 295 0.0 5.0 0.00 0.00 0.00 43 1018.0
20260506211610 75 333 0.0 5.0 0.00 0.00 0.00 43 1018.0
20260506211112 75 335 1.0 9.0 0.00 0.00 0.00 44 1017.9
20260506210613 75 336 1.0 9.0 0.00 0.00 0.00 44 1018.0
20260506210110 75 320 1.0 8.0 0.00 0.00 0.00 46 1018.0
20260506205609 75 295 1.0 8.0 0.00 0.00 0.00 43 1018.0
20260506205112 75 263 1.0 8.0 0.00 0.00 0.00 44 1018.3
20260506204611 75 199 0.0 7.0 0.00 0.00 0.00 43 1018.3
20260506204109 75 3 0.0 3.0 0.00 0.00 0.00 46 1018.4
20260506203607 74 340 0.0 3.0 0.00 0.00 0.00 45 1018.5
20260506203337 73 282 0.0 6.0 0.00 0.00 0.00 48 1018.5
20260506202608 74 281 0.0 6.0 0.00 0.00 0.00 45 1018.5
20260506202337 73 313 0.0 5.0 0.00 0.00 0.00 45 1018.6
20260506201605 74 14 0.0 5.0 0.00 0.00 0.00 46 1018.6
20260506201106 73 356 0.0 5.0 0.00 0.00 0.00 47 1018.6
20260506200606 71 41 0.0 2.0 0.00 0.00 0.00 49 1018.7
20260506200105 73 326 0.0 7.0 0.00 0.00 0.00 46 1018.7
20260506195605 73 302 0.0 7.0 0.00 0.00 0.00 46 1018.7
20260506195105 72 322 1.0 6.0 0.00 0.00 0.00 50 1018.9
20260506194603 71 294 1.0 6.0 0.00 0.00 0.00 48 1018.9
20260506194101 72 304 0.0 5.0 0.00 0.00 0.00 47 1018.9
20260506193600 72 301 0.0 5.0 0.00 0.00 0.00 50 1019.2
20260506193102 71 335 0.0 3.0 0.00 0.00 0.00 49 1019.2
20260506192600 71 344 0.0 6.0 0.00 0.00 0.00 50 1019.2
20260506192330 71 359 0.0 6.0 0.00 0.00 0.00 50 1019.3
20260506191832 70 319 0.0 5.0 0.00 0.00 0.00 50 1019.3
20260506191100 70 316 0.0 5.0 0.00 0.00 0.00 49 1019.3
20260506190558 71 322 0.0 5.0 0.00 0.00 0.00 50 1019.4
20260506190113 71 306 0.0 5.0 0.00 0.00 0.00 50 1019.4
20260506185601 71 0 0.0 0.0 0.00 0.00 0.00 50 1019.4
20260506185101 70 0 0.0 1.0 0.00 0.00 0.00 53 1019.5
20260506184828 69 347 0.0 3.0 0.00 0.00 0.00 53 1019.5
20260506184045 69 0 0.0 3.0 0.00 0.00 0.00 54 1019.5
20260506183544 69 318 0.0 1.0 0.00 0.00 0.00 53 1019.6
20260506183043 69 313 0.0 5.0 0.00 0.00 0.00 55 1019.6
20260506182544 68 315 0.0 5.0 0.00 0.00 0.00 55 1019.6
20260506182046 68 16 0.0 2.0 0.00 0.00 0.00 54 1019.6
20260506181535 68 148 0.0 4.0 0.00 0.00 0.00 54 1019.6
20260506181030 68 329 0.0 5.0 0.00 0.00 0.00 54 1019.6
20260506180814 68 295 0.0 5.0 0.00 0.00 0.00 55 1019.6
20260506175803 66 298 0.0 6.0 0.00 0.00 0.00 56 1019.5
20260506175031 67 337 0.0 1.0 0.00 0.00 0.00 54 1019.6
20260506174531 67 342 0.0 1.0 0.00 0.00 0.00 56 1019.6
20260506174303 66 343 0.0 1.0 0.00 0.00 0.00 56 1019.6
20260506173532 66 18 0.0 0.0 0.00 0.00 0.00 57 1019.7
20260506173031 66 320 0.0 2.0 0.00 0.00 0.00 57 1019.7
20260506172802 66 319 0.0 3.0 0.00 0.00 0.00 57 1019.7
20260506172034 66 337 0.0 3.0 0.00 0.00 0.00 59 1019.7
20260506171524 65 342 0.0 5.0 0.00 0.00 0.00 58 1019.7
20260506170748 65 0 0.0 0.0 0.00 0.00 0.00 59 1019.8
20260506170019 65 0 0.0 7.0 0.00 0.00 0.00 58 1019.8
20260506165520 66 318 0.0 7.0 0.00 0.00 0.00 58 1019.8
20260506165248 65 285 1.0 6.0 0.00 0.00 0.00 61 1019.8
20260506164515 65 306 0.0 6.0 0.00 0.00 0.00 60 1019.8
20260506164016 65 312 0.0 1.0 0.00 0.00 0.00 60 1019.8
20260506163515 64 313 0.0 1.0 0.00 0.00 0.00 62 1019.8
20260506163017 64 313 0.0 7.0 0.00 0.00 0.00 62 1019.8
20260506162239 64 322 0.0 1.0 0.00 0.00 0.00 64 1019.9
20260506161510 63 319 0.0 1.0 0.00 0.00 0.00 66 1019.9
20260506161008 62 0 0.0 1.0 0.00 0.00 0.00 68 1019.9
20260506160233 60 0 0.0 1.0 0.00 0.00 0.00 68 1019.9
20260506155503 60 0 0.0 1.0 0.00 0.00 0.00 68 1019.9
20260506155002 60 0 0.0 0.0 0.00 0.00 0.00 69 1019.9
20260506154504 60 0 0.0 0.0 0.00 0.00 0.00 69 1019.9
20260506154003 60 0 0.0 0.0 0.00 0.00 0.00 70 1019.9
20260506153503 60 0 0.0 0.0 0.00 0.00 0.00 70 1019.9
20260506152959 60 0 0.0 0.0 0.00 0.00 0.00 70 1019.8
20260506152454 59 0 0.0 0.0 0.00 0.00 0.00 71 1019.8
20260506151951 59 0 0.0 2.0 0.00 0.00 0.00 71 1019.8
20260506150950 59 0 0.0 0.0 0.00 0.00 0.00 71 1019.8
20260506150447 59 0 0.0 3.0 0.00 0.00 0.00 72 1019.8
20260506145950 59 0 0.0 3.0 0.00 0.00 0.00 72 1019.8
20260506145450 59 3 0.0 0.0 0.00 0.00 0.00 73 1019.8
20260506144949 58 3 0.0 0.0 0.00 0.00 0.00 73 1019.9
20260506144450 58 3 0.0 0.0 0.00 0.00 0.00 73 1019.9
20260506143948 58 3 0.0 0.0 0.00 0.00 0.00 73 1019.9
20260506143449 58 3 0.0 0.0 0.00 0.00 0.00 73 1019.8
20260506142949 58 3 0.0 0.0 0.00 0.00 0.00 73 1019.8
20260506142723 58 3 0.0 0.0 0.00 0.00 0.00 74 1019.8
20260506141935 58 3 0.0 0.0 0.00 0.00 0.00 74 1019.6
20260506141434 58 3 0.0 0.0 0.00 0.00 0.00 74 1019.6
20260506141208 58 3 0.0 0.0 0.00 0.00 0.00 74 1019.6
20260506140433 58 3 0.0 0.0 0.00 0.00 0.00 74 1019.4
20260506135934 57 3 0.0 0.0 0.00 0.00 0.00 74 1019.4
20260506134935 57 3 0.0 1.0 0.00 0.00 0.00 74 1019.2
20260506134435 57 3 0.0 0.0 0.00 0.00 0.00 74 1019.2
20260506133927 57 7 0.0 0.0 0.00 0.00 0.00 75 1019.2
20260506133424 57 7 0.0 0.0 0.00 0.00 0.00 75 1019.0
20260506132922 57 7 0.0 0.0 0.00 0.00 0.00 75 1019.0
20260506132420 57 7 0.0 0.0 0.00 0.00 0.00 75 1019.0
20260506131922 57 16 0.0 0.0 0.00 0.00 0.00 75 1018.9
20260506131652 57 312 0.0 0.0 0.00 0.00 0.00 75 1018.9
20260506130924 57 312 0.0 0.0 0.00 0.00 0.00 75 1018.9
20260506130420 57 312 0.0 0.0 0.00 0.00 0.00 75 1018.8
20260506125922 57 312 0.0 0.0 0.00 0.00 0.00 75 1018.8
20260506125421 57 316 0.0 0.0 0.00 0.00 0.00 74 1018.8
20260506124921 57 316 0.0 0.0 0.00 0.00 0.00 74 1018.8
20260506124653 57 316 0.0 0.0 0.00 0.00 0.00 74 1018.8
20260506123908 57 316 0.0 0.0 0.00 0.00 0.00 74 1018.8
20260506123405 57 316 0.0 0.0 0.00 0.00 0.00 74 1018.8
20260506122851 57 316 0.0 0.0 0.00 0.00 0.00 74 1018.8
20260506122351 57 316 0.0 0.0 0.00 0.00 0.00 74 1018.8
20260506121852 57 316 0.0 0.0 0.00 0.00 0.00 74 1018.7
20260506121351 57 316 0.0 0.0 0.00 0.00 0.00 74 1018.7
20260506120850 57 316 0.0 0.0 0.00 0.00 0.00 74 1018.7
20260506120352 57 316 0.0 0.0 0.00 0.00 0.00 74 1018.5
20260506115852 57 316 0.0 0.0 0.00 0.00 0.00 74 1018.5
20260506114837 57 316 0.0 0.0 0.00 0.00 0.00 74 1018.4
20260506114336 57 316 0.0 0.0 0.00 0.00 0.00 75 1018.4
20260506113836 57 316 0.0 0.0 0.00 0.00 0.00 75 1018.4
20260506113337 57 316 0.0 0.0 0.00 0.00 0.00 75 1018.3
20260506112837 57 316 0.0 0.0 0.00 0.00 0.00 75 1018.3
20260506112338 57 316 0.0 0.0 0.00 0.00 0.00 75 1018.3
20260506111838 57 316 0.0 0.0 0.00 0.00 0.00 75 1018.3
20260506111612 57 316 0.0 0.0 0.00 0.00 0.00 75 1018.3
20260506110839 57 315 0.0 0.0 0.00 0.00 0.00 76 1018.3
20260506110608 57 315 0.0 0.0 0.00 0.00 0.00 76 1018.3
20260506105837 57 315 0.0 0.0 0.00 0.00 0.00 77 1018.3
20260506105608 57 315 0.0 0.0 0.00 0.00 0.00 76 1018.3
20260506105107 57 315 0.0 0.0 0.00 0.00 0.00 76 1018.2
20260506104330 57 315 0.0 0.0 0.00 0.00 0.00 76 1018.2
20260506103824 58 315 0.0 0.0 0.00 0.00 0.00 76 1018.2
20260506103324 58 315 0.0 0.0 0.00 0.00 0.00 76 1018.1
20260506102822 58 315 0.0 0.0 0.00 0.00 0.00 75 1018.1
20260506102324 58 315 0.0 0.0 0.00 0.00 0.00 75 1018.1
20260506101822 58 315 0.0 0.0 0.00 0.00 0.00 75 1018.2
20260506101324 58 315 0.0 0.0 0.00 0.00 0.00 75 1018.2
20260506100822 58 315 0.0 0.0 0.00 0.00 0.00 75 1018.2
20260506100325 58 315 0.0 0.0 0.00 0.00 0.00 74 1018.2
20260506095821 58 315 0.0 0.0 0.00 0.00 0.00 74 1018.2
20260506095310 58 315 0.0 0.0 0.00 0.00 0.00 74 1018.2
20260506094811 58 315 0.0 0.0 0.00 0.00 0.00 74 1018.2
20260506094310 58 315 0.0 0.0 0.00 0.00 0.00 74 1018.2
20260506093807 58 315 0.0 0.0 0.00 0.00 0.00 73 1018.2
20260506093309 58 315 0.0 0.0 0.00 0.00 0.00 73 1018.2
20260506092810 58 315 0.0 0.0 0.00 0.00 0.00 73 1018.2
20260506092542 58 315 0.0 0.0 0.00 0.00 0.00 73 1018.2
20260506091810 58 315 0.0 0.0 0.00 0.00 0.00 73 1018.3
20260506091255 58 315 0.0 0.0 0.00 0.00 0.00 73 1018.3
20260506090750 58 315 0.0 0.0 0.00 0.00 0.00 73 1018.3
20260506090240 58 312 0.0 0.0 0.00 0.00 0.00 73 1018.3
20260506085739 58 315 0.0 0.0 0.00 0.00 0.00 73 1018.3
20260506085239 58 315 0.0 0.0 0.00 0.00 0.00 73 1018.3
20260506084739 58 315 0.0 0.0 0.00 0.00 0.00 73 1018.2
20260506083739 58 315 0.0 0.0 0.00 0.00 0.00 73 1018.2
20260506083240 58 316 0.0 0.0 0.00 0.00 0.00 73 1018.3
20260506083010 58 315 0.0 0.0 0.00 0.00 0.00 73 1018.3
20260506082239 58 315 0.0 0.0 0.00 0.00 0.00 73 1018.3
20260506081727 58 315 0.0 0.0 0.00 0.00 0.00 73 1018.2
20260506081226 58 315 0.0 0.0 0.00 0.00 0.00 73 1018.2
20260506080722 58 315 0.0 2.0 0.00 0.00 0.00 72 1018.2
20260506080212 58 316 0.0 2.0 0.00 0.00 0.00 72 1018.2
20260506073211 58 312 0.0 0.0 0.00 0.00 0.00 72 1018.0
20260506072711 58 312 0.0 3.0 0.00 0.00 0.00 72 1018.0
20260506072202 58 312 0.0 3.0 0.00 0.00 0.00 72 1017.8
20260506071659 58 313 0.0 1.0 0.00 0.00 0.00 72 1017.8
20260506071157 58 313 0.0 0.0 0.00 0.00 0.00 72 1017.8
20260506070658 58 313 0.0 0.0 0.00 0.00 0.00 72 1017.7
20260506070144 58 313 0.0 0.0 0.00 0.00 0.00 71 1017.7
20260506062134 58 313 0.0 6.0 0.00 0.00 0.00 70 1017.4
20260506061629 59 315 0.0 6.0 0.00 0.00 0.00 70 1017.4
20260506061401 59 309 0.0 0.0 0.00 0.00 0.00 70 1017.4
20260506060631 59 308 0.0 0.0 0.00 0.00 0.00 70 1017.4
20260506060112 59 308 0.0 1.0 0.00 0.00 0.00 70 1017.4
20260506051059 60 296 0.0 5.0 0.00 0.00 0.00 68 1017.1
20260506050831 60 295 0.0 3.0 0.00 0.00 0.00 68 1016.9
20260506044603 60 288 0.0 0.0 0.00 0.00 0.00 65 1016.8
20260506044100 60 288 0.0 0.0 0.00 0.00 0.00 65 1016.8
20260506043600 60 284 0.0 0.0 0.00 0.00 0.00 65 1016.7
20260506043047 60 288 0.0 0.0 0.00 0.00 0.00 65 1016.7
20260506042546 60 288 0.0 0.0 0.00 0.00 0.00 65 1016.7
20260506042044 60 288 0.0 0.0 0.00 0.00 0.00 65 1016.4
20260506041046 60 288 0.0 0.0 0.00 0.00 0.00 65 1016.4
20260506040545 60 288 0.0 0.0 0.00 0.00 0.00 65 1016.4
20260506040059 60 288 0.0 0.0 0.00 0.00 0.00 65 1016.4
20260506035549 60 288 0.0 2.0 0.00 0.00 0.00 65 1016.4
20260506035318 60 288 0.0 2.0 0.00 0.00 0.00 65 1016.1
20260506034547 60 288 0.0 1.0 0.00 0.00 0.00 64 1016.1
20260506034059 60 288 0.0 1.0 0.00 0.00 0.00 64 1016.1
20260506033544 60 288 0.0 0.0 0.00 0.00 0.00 65 1015.8
20260506033045 60 288 0.0 0.0 0.00 0.00 0.00 65 1015.8
20260506032546 60 288 0.0 0.0 0.00 0.00 0.00 65 1015.8
20260506032047 60 288 0.0 3.0 0.00 0.00 0.00 65 1015.7
20260506031545 60 288 0.0 3.0 0.00 0.00 0.00 65 1015.7
20260506031315 61 287 0.0 3.0 0.00 0.00 0.00 65 1015.7
20260506030543 61 308 0.0 1.0 0.00 0.00 0.00 65 1015.3
20260506030058 61 308 0.0 1.0 0.00 0.00 0.00 65 1015.3
20260506025543 61 309 0.0 0.0 0.00 0.00 0.00 65 1015.3